Location: *
(32.8140°S, 174.6161°E)
Time: 02:25:08
(UTC+00:00)

BREEZE-M DEB (TANK) - Pass Details

Date: 10 December 2019
Orbit: 281 x 13109 km, 49.6° (Epoch: 28 January)

Event Time Altitude Azimuth Distance (km) Brightness Sun altitude
Rises 16:30:50 0° 230° (SW) 9,858 8.5 -7.3°
Reaches altitude 10° 16:40:26 10° 231° (SW) 6,646 7.6 -5.6°
Maximum altitude 16:54:56 65° 308° (NW) 1,185 3.8 -3.0°
Drops below altitude 10° 16:58:57 10° 31° (NNE) 1,961 5.2 -2.2°
Sets 17:00:18 0° 35° (NE) 2,555 5.8 -2.0°
